F4NFR-13 Weather Reports


time (UTC)temp
C
wind
direction
speed
KPH
gust
KPH
rain 1hr
cm
rain 24hr
cm
rain mn
cm
humidity
%
barometer
mb
20260507085534 12 2 3.2 4.8 0.00 0.00 0.00 69 1017.8
20260507085031 12 32 3.2 3.2 0.00 0.00 0.00 72 1017.8
20260507084529 12 21 6.4 8.0 0.00 0.00 0.00 73 1017.8
20260507084027 12 28 6.4 9.7 0.00 0.00 0.00 72 1017.8
20260507083524 12 70 4.8 4.8 0.00 0.00 0.00 71 1017.8
20260507082519 12 50 3.2 4.8 0.00 0.00 0.00 73 1017.8
20260507082017 12 23 9.7 11.3 0.00 0.00 0.00 71 1017.8
20260507081514 12 38 3.2 4.8 0.00 0.00 0.00 70 1017.8
20260507081011 12 3 1.6 3.2 0.00 0.00 0.00 71 1017.8
20260507080509 12 73 1.6 3.2 0.00 0.00 0.00 73 1017.8
20260507080007 12 83 3.2 6.4 0.00 0.00 0.00 71 1017.8
20260507075504 12 56 6.4 11.3 0.00 0.00 0.00 72 1017.8
20260507074500 12 34 3.2 6.4 0.00 0.00 0.00 71 1017.8
20260507073957 12 97 6.4 6.4 0.00 0.00 0.00 72 1017.8
20260507073454 12 90 3.2 11.3 0.00 0.00 0.00 69 1017.8
20260507072952 12 14 3.2 8.0 0.00 0.00 0.00 73 1017.8
20260507072449 12 107 3.2 4.8 0.00 0.00 0.00 74 1017.8
20260507071947 12 80 6.4 6.4 0.00 0.00 0.00 73 1017.8
20260507071445 12 71 3.2 6.4 0.00 0.00 0.00 74 1017.8
20260507070942 12 77 4.8 9.7 0.00 0.00 0.00 73 1017.8
20260507070440 12 73 3.2 8.0 0.00 0.00 0.00 74 1017.8
20260507065938 12 355 3.2 9.7 0.00 0.00 0.00 73 1017.8
20260507065435 12 23 4.8 8.0 0.00 0.00 0.00 71 1017.8
20260507064932 12 57 1.6 1.6 0.00 0.00 0.00 73 1017.4
20260507064430 12 353 9.7 9.7 0.00 0.00 0.00 73 1017.4
20260507063928 12 42 6.4 6.4 0.00 0.00 0.00 77 1017.4
20260507063425 12 59 1.6 1.6 0.00 0.00 0.00 81 1017.4
20260507062922 11 74 3.2 4.8 0.00 0.00 0.00 84 1017.4
20260507062420 11 87 1.6 3.2 0.00 0.00 0.00 86 1017.4
20260507061918 10 33 3.2 3.2 0.00 0.00 0.00 89 1017.4
20260507061416 10 78 1.6 1.6 0.00 0.00 0.00 90 1017.4
20260507060913 8 57 1.6 1.6 0.00 0.00 0.00 92 1017.4
20260507060411 8 14 1.6 1.6 0.00 0.00 0.00 94 1017.4
20260507055908 8 15 0.0 0.0 0.00 0.00 0.00 94 1017.4
20260507055406 7 24 0.0 0.0 0.00 0.00 0.00 94 1017.4
20260507054903 7 38 0.0 0.0 0.00 0.00 0.00 94 1017.4
20260507054401 7 64 1.6 1.6 0.00 0.00 0.00 95 1017.1
20260507053356 7 19 0.0 0.0 0.00 0.00 0.00 96 1017.1
20260507052352 7 11 0.0 0.0 0.00 0.00 0.00 96 1017.1
20260507051849 7 3 0.0 0.0 0.00 0.00 0.00 96 1017.1
20260507051346 7 16 0.0 0.0 0.00 0.00 0.00 96 1017.1
20260507050844 7 25 0.0 0.0 0.00 0.00 0.00 96 1017.1
20260507050342 7 28 0.0 0.0 0.00 0.00 0.00 96 1017.1
20260507045838 7 12 0.0 0.0 0.00 0.00 0.00 96 1017.1
20260507045336 6 27 0.0 0.0 0.00 0.00 0.00 96 1017.1
20260507044834 6 55 1.6 1.6 0.00 0.00 0.00 96 1016.7
20260507044332 6 9 0.0 0.0 0.00 0.00 0.00 97 1016.7
20260507043326 5 28 0.0 0.0 0.00 0.00 0.00 96 1016.7
20260507042825 6 61 0.0 0.0 0.00 0.00 0.00 96 1016.7
20260507042322 5 26 0.0 0.0 0.00 0.00 0.00 96 1016.7
20260507041819 6 30 0.0 0.0 0.00 0.00 0.00 96 1016.7
20260507041317 6 54 1.6 1.6 0.00 0.00 0.00 96 1016.7
20260507040815 7 10 0.0 0.0 0.00 0.00 0.00 96 1016.7
20260507040312 7 342 1.6 1.6 0.00 0.00 0.00 97 1016.7
20260507035809 7 329 1.6 1.6 0.00 0.00 0.00 97 1016.7
20260507035307 6 0 0.0 0.0 0.00 0.00 0.00 96 1016.7
20260507034804 6 23 0.0 0.0 0.00 0.00 0.00 96 1016.7
20260507034301 6 21 0.0 0.0 0.00 0.00 0.00 96 1016.7
20260507033257 6 4 0.0 0.0 0.00 0.00 0.00 96 1016.7
20260507032754 6 353 1.6 1.6 0.00 0.00 0.00 96 1016.7
20260507031750 6 276 0.0 1.6 0.00 0.00 0.00 95 1016.7
20260507031247 6 320 1.6 1.6 0.00 0.00 0.00 95 1016.7
20260507030745 6 345 1.6 1.6 0.00 0.00 0.00 95 1016.7
20260507025740 7 0 0.0 1.6 0.00 0.00 0.00 94 1016.7
20260507025238 7 0 0.0 0.0 0.00 0.00 0.00 94 1016.7
20260507024735 7 340 1.6 1.6 0.00 0.00 0.00 94 1016.7
20260507024233 7 330 1.6 1.6 0.00 0.00 0.00 94 1016.7
20260507023731 7 287 1.6 1.6 0.00 0.00 0.00 94 1016.7
20260507023229 7 300 1.6 1.6 0.00 0.00 0.00 93 1016.7
20260507022725 7 320 1.6 1.6 0.00 0.00 0.00 93 1016.7
20260507022224 7 268 1.6 1.6 0.00 0.00 0.00 93 1016.7
20260507021721 7 317 0.0 1.6 0.00 0.00 0.00 93 1016.7
20260507021219 7 334 0.0 0.0 0.00 0.00 0.00 93 1016.7
20260507020716 7 333 0.0 1.6 0.00 0.00 0.00 93 1016.7
20260507020213 7 345 1.6 1.6 0.00 0.00 0.00 93 1016.4
20260507015711 7 0 1.6 1.6 0.00 0.00 0.00 93 1016.4
20260507014706 7 297 1.6 1.6 0.00 0.00 0.00 93 1016.4
20260507014203 7 282 1.6 1.6 0.00 0.00 0.00 93 1016.4
20260507013701 7 0 1.6 1.6 0.00 0.00 0.00 93 1016.4
20260507013159 7 16 1.6 1.6 0.00 0.00 0.00 93 1016.4
20260507012656 7 354 0.0 0.0 0.00 0.00 0.00 93 1016.4
20260507012154 7 349 0.0 0.0 0.00 0.00 0.00 93 1016.4
20260507011651 7 344 0.0 1.6 0.00 0.00 0.00 92 1016.4
20260507011148 7 354 1.6 1.6 0.00 0.00 0.00 93 1016.4
20260507010646 7 351 0.0 1.6 0.00 0.00 0.00 92 1016.4
20260507010143 7 319 1.6 1.6 0.00 0.00 0.00 92 1016.4
20260507005641 7 325 1.6 1.6 0.00 0.00 0.00 92 1016.4
20260507005138 7 341 0.0 0.0 0.00 0.00 0.00 91 1016.4
20260507004636 7 6 0.0 0.0 0.00 0.00 0.00 90 1016.4
20260507004134 7 28 0.0 0.0 0.00 0.00 0.00 90 1016.4
20260507003631 7 4 1.6 1.6 0.00 0.00 0.00 91 1016.4
20260507003129 7 345 1.6 1.6 0.00 0.00 0.00 91 1016.4
20260507002626 7 315 1.6 1.6 0.00 0.00 0.00 91 1016.4
20260507002124 7 290 1.6 1.6 0.00 0.00 0.00 91 1016.4
20260507001622 7 315 1.6 1.6 0.00 0.00 0.00 91 1016.4
20260507001120 7 284 1.6 1.6 0.00 0.00 0.00 90 1016.4
20260507000618 7 317 1.6 1.6 0.00 0.00 0.00 90 1016.4
20260507000116 7 344 1.6 1.6 0.00 0.00 0.00 90 1016.4
20260506235613 7 313 1.6 1.6 0.00 0.00 0.00 89 1016.4
20260506235110 7 326 1.6 1.6 0.00 0.00 0.00 88 1016.4
20260506234608 7 338 1.6 1.6 0.00 0.00 0.00 88 1016.4
20260506234106 7 348 0.0 1.6 0.00 0.00 0.00 88 1016.4
20260506233604 7 8 1.6 3.2 0.00 0.00 0.00 88 1016.4
20260506233101 7 358 3.2 3.2 0.00 0.00 0.00 88 1016.4
20260506232559 7 5 1.6 1.6 0.00 0.00 0.00 88 1016.4
20260506232057 7 336 1.6 1.6 0.00 0.00 0.00 88 1016.4
20260506231555 8 323 1.6 1.6 0.00 0.00 0.00 88 1016.4
20260506231052 8 22 3.2 3.2 0.00 0.00 0.00 88 1016.4
20260506230550 8 351 1.6 1.6 0.00 0.00 0.00 88 1016.4
20260506230048 8 357 1.6 3.2 0.00 0.00 0.00 87 1016.4
20260506225546 8 24 1.6 1.6 0.00 0.00 0.00 87 1016.4
20260506225043 8 324 1.6 1.6 0.00 0.00 0.00 87 1016.4
20260506224037 8 64 3.2 4.8 0.00 0.00 0.00 86 1016.1
20260506223534 8 344 4.8 6.4 0.00 0.00 0.00 86 1016.1
20260506223031 8 354 3.2 3.2 0.00 0.00 0.00 86 1016.1
20260506222529 8 33 1.6 3.2 0.00 0.00 0.00 85 1016.1
20260506222027 10 32 1.6 3.2 0.00 0.00 0.00 84 1016.1
20260506221525 8 28 1.6 1.6 0.00 0.00 0.00 85 1016.1
20260506221022 10 47 3.2 6.4 0.00 0.00 0.00 85 1016.1
20260506220520 10 27 3.2 4.8 0.00 0.00 0.00 85 1016.1
20260506220017 10 39 3.2 4.8 0.00 0.00 0.00 85 1016.1
20260506215515 10 8 3.2 3.2 0.00 0.00 0.00 85 1016.1
20260506215013 10 50 0.0 1.6 0.00 0.00 0.00 85 1016.1
20260506214510 10 57 3.2 4.8 0.00 0.00 0.00 85 1015.7
20260506214007 10 52 3.2 4.8 0.00 0.00 0.00 85 1015.7
20260506213505 10 31 3.2 6.4 0.00 0.00 0.00 85 1016.1
20260506213003 10 16 6.4 8.0 0.00 0.00 0.00 85 1016.1
20260506212500 10 27 3.2 4.8 0.00 0.00 0.00 85 1015.7
20260506211957 10 29 6.4 8.0 0.00 0.00 0.00 85 1015.7
20260506211454 10 20 3.2 4.8 0.00 0.00 0.00 85 1015.7
20260506210952 10 28 3.2 4.8 0.00 0.00 0.00 85 1015.7
20260506210450 10 12 4.8 6.4 0.00 0.00 0.00 85 1015.7
20260506205948 10 5 3.2 3.2 0.00 0.00 0.00 85 1015.7
20260506205445 10 19 3.2 9.7 0.00 0.00 0.00 85 1015.7
20260506204942 10 4 8.0 8.0 0.00 0.00 0.00 85 1015.7
20260506204439 10 336 3.2 4.8 0.00 0.00 0.00 85 1015.7
20260506203937 10 11 4.8 9.7 0.00 0.00 0.00 85 1015.7
20260506203434 10 0 8.0 11.3 0.00 0.00 0.00 85 1015.7
20260506202932 10 18 3.2 4.8 0.00 0.00 0.00 85 1015.7
20260506202429 10 14 3.2 4.8 0.00 0.00 0.00 84 1015.7
20260506201927 10 8 6.4 6.4 0.00 0.00 0.00 84 1015.7
20260506201424 10 357 3.2 3.2 0.00 0.00 0.00 84 1015.7
20260506200922 10 353 6.4 6.4 0.00 0.00 0.00 84 1015.7
20260506200420 10 9 3.2 4.8 0.00 0.00 0.00 84 1015.4
20260506195917 10 28 1.6 4.8 0.00 0.00 0.00 83 1015.4
20260506195414 10 8 1.6 4.8 0.00 0.00 0.00 83 1015.4
20260506194912 10 2 9.7 9.7 0.00 0.00 0.00 83 1015.4
20260506194409 10 17 6.4 11.3 0.00 0.00 0.00 82 1015.4
20260506193907 10 47 11.3 11.3 0.00 0.00 0.00 82 1015.0
20260506193404 10 0 8.0 8.0 0.00 0.00 0.00 82 1015.0
20260506192901 10 0 4.8 8.0 0.00 0.00 0.00 82 1015.0
20260506192359 10 32 4.8 8.0 0.00 0.00 0.00 81 1015.0
20260506191856 10 353 6.4 6.4 0.00 0.00 0.00 81 1015.0
20260506191354 10 11 3.2 6.4 0.00 0.00 0.00 81 1015.0
20260506190851 10 0 4.8 6.4 0.00 0.00 0.00 80 1015.0
20260506190349 10 21 8.0 11.3 0.00 0.00 0.00 79 1015.0
20260506185847 10 8 4.8 9.7 0.00 0.00 0.00 79 1014.7
20260506185344 10 28 6.4 9.7 0.00 0.00 0.00 78 1014.7
20260506184841 10 13 3.2 4.8 0.00 0.00 0.00 77 1014.7
20260506184338 10 29 9.7 9.7 0.00 0.00 0.00 77 1014.7
20260506183836 10 26 3.2 8.0 0.00 0.00 0.00 76 1014.7
20260506183333 11 24 3.2 4.8 0.00 0.00 0.00 75 1014.7
20260506182831 11 62 4.8 9.7 0.00 0.00 0.00 75 1014.7
20260506182328 11 71 11.3 11.3 0.00 0.00 0.00 74 1014.7
20260506181826 11 61 6.4 8.0 0.00 0.00 0.00 73 1014.7
20260506181324 11 63 9.7 9.7 0.00 0.00 0.00 72 1014.7
20260506180821 11 30 4.8 6.4 0.00 0.00 0.00 71 1014.4
20260506180318 11 14 9.7 9.7 0.00 0.00 0.00 69 1014.4
20260506175816 11 46 6.4 8.0 0.00 0.00 0.00 69 1014.4
20260506175314 11 323 6.4 8.0 0.00 0.00 0.00 68 1014.4
20260506174812 12 0 3.2 3.2 0.00 0.00 0.00 69 1014.4
20260506174309 12 25 9.7 11.3 0.00 0.00 0.00 69 1014.0
20260506173807 12 5 4.8 14.5 0.00 0.00 0.00 67 1014.0
20260506173305 12 29 9.7 11.3 0.00 0.00 0.00 68 1014.0
20260506172802 12 81 9.7 14.5 0.00 0.00 0.00 66 1014.0
20260506172300 12 32 4.8 6.4 0.00 0.00 0.00 66 1014.0
20260506171757 12 90 3.2 9.7 0.00 0.00 0.00 66 1014.0
20260506171254 12 7 6.4 11.3 0.00 0.00 0.00 66 1014.0
20260506170752 12 33 4.8 4.8 0.00 0.00 0.00 66 1014.0
20260506170249 12 76 8.0 12.9 0.00 0.00 0.00 65 1014.0
20260506165747 12 63 4.8 9.7 0.00 0.00 0.00 66 1014.0
20260506165245 12 77 1.6 6.4 0.00 0.00 0.00 66 1014.0
20260506164742 12 71 4.8 9.7 0.00 0.00 0.00 66 1014.0
20260506164240 12 0 9.7 11.3 0.00 0.00 0.00 64 1013.7
20260506163737 12 38 17.7 22.5 0.00 0.00 0.00 64 1013.7
20260506163234 12 73 8.0 11.3 0.00 0.00 0.00 64 1013.7
20260506162732 12 51 6.4 9.7 0.00 0.00 0.00 66 1013.7
20260506162230 12 16 0.0 3.2 0.00 0.00 0.00 67 1013.7
20260506161225 12 354 14.5 14.5 0.00 0.00 0.00 67 1014.0
20260506160723 12 39 14.5 16.1 0.00 0.00 0.00 66 1014.0
20260506160221 12 12 9.7 11.3 0.00 0.00 0.00 66 1014.0
20260506155718 12 8 24.1 24.1 0.00 0.00 0.00 65 1014.0
20260506155216 12 55 9.7 11.3 0.00 0.00 0.00 67 1014.0
20260506154211 12 26 11.3 11.3 0.00 0.00 0.00 67 1014.0
20260506152704 12 357 4.8 9.7 0.00 0.00 0.00 67 1013.7
20260506152201 12 7 11.3 19.3 0.00 0.00 0.00 67 1013.7
20260506151659 12 27 9.7 14.5 0.00 0.00 0.00 66 1013.7
20260506150655 12 1 6.4 6.4 0.00 0.00 0.00 68 1013.7
20260506150153 12 354 14.5 14.5 0.00 0.00 0.00 68 1013.7
20260506145650 12 43 9.7 9.7 0.00 0.00 0.00 67 1013.7
20260506145148 12 41 9.7 19.3 0.00 0.00 0.00 66 1013.7
20260506144645 12 353 4.8 6.4 0.00 0.00 0.00 68 1013.7
20260506144148 12 52 3.2 6.4 0.00 0.00 0.00 72 1013.7
20260506143641 12 39 6.4 8.0 0.00 0.00 0.00 72 1013.7
20260506142133 12 92 3.2 3.2 0.00 0.00 0.00 75 1013.7
20260506141630 11 47 6.4 8.0 0.00 0.00 0.00 75 1013.7
20260506141128 11 9 9.7 9.7 0.00 0.00 0.00 78 1013.7
20260506140626 11 53 12.9 12.9 0.00 0.00 0.00 78 1013.7
20260506140124 12 44 6.4 9.7 0.00 0.00 0.00 77 1013.7
20260506135622 12 53 6.4 14.5 0.00 0.00 0.00 75 1013.7
20260506135119 12 359 3.2 6.4 0.00 0.00 0.00 75 1013.7
20260506134617 12 342 4.8 8.0 0.00 0.00 0.00 75 1013.7
20260506134114 11 0 4.8 11.3 0.00 0.00 0.00 76 1013.7
20260506133613 11 24 17.7 17.7 0.00 0.00 0.00 75 1013.7
20260506133110 12 31 20.9 22.5 0.00 0.00 0.00 73 1013.7
20260506132608 12 45 6.4 9.7 0.00 0.00 0.00 73 1013.7
20260506132105 12 39 8.0 9.7 0.00 0.00 0.00 73 1013.7
20260506131603 12 50 4.8 9.7 0.00 0.00 0.00 73 1013.7
20260506131101 12 26 16.1 19.3 0.00 0.00 0.00 73 1013.7
20260506130055 12 1 14.5 14.5 0.00 0.00 0.00 73 1013.7
20260506125553 11 7 16.1 16.1 0.00 0.00 0.00 74 1013.7
20260506125050 12 0 4.8 4.8 0.00 0.00 0.00 76 1013.7
20260506124547 11 330 8.0 11.3 0.00 0.00 0.00 77 1013.7
20260506123543 11 20 12.9 19.3 0.00 0.00 0.00 79 1013.7
20260506123040 10 22 9.7 11.3 0.00 0.00 0.00 79 1013.7
20260506122538 10 39 16.1 24.1 0.00 0.00 0.00 79 1013.7
20260506121533 11 38 11.3 11.3 0.00 0.00 0.00 81 1013.7
20260506121030 11 23 11.3 11.3 0.00 0.00 0.00 82 1013.7
20260506120528 11 22 3.2 4.8 0.00 0.00 0.00 83 1013.7
20260506120025 11 59 8.0 8.0 0.00 0.00 0.00 81 1013.4
20260506115523 11 66 6.4 9.7 0.00 0.00 0.00 79 1013.4
20260506115021 11 68 9.7 12.9 0.00 0.00 0.00 78 1013.4
20260506114519 11 61 6.4 6.4 0.00 0.00 0.00 78 1013.4
20260506114016 11 82 11.3 11.3 0.00 0.00 0.00 79 1013.4
20260506113514 11 348 9.7 9.7 0.00 0.00 0.00 78 1013.4
20260506113011 11 33 11.3 19.3 0.00 0.00 0.00 79 1013.4
20260506112509 11 14 8.0 11.3 0.00 0.00 0.00 81 1013.4
20260506112007 11 33 12.9 12.9 0.00 0.00 0.00 81 1013.4
20260506111504 11 47 6.4 8.0 0.00 0.00 0.00 81 1013.4
20260506111001 11 38 8.0 9.7 0.00 0.00 0.00 80 1013.4
20260506105956 11 47 9.7 14.5 0.00 0.00 0.00 78 1013.4
20260506104952 11 333 12.9 19.3 0.00 0.00 0.00 79 1013.4
20260506104449 11 30 14.5 14.5 0.00 0.00 0.00 78 1013.4
20260506103947 11 11 3.2 9.7 0.00 0.00 0.00 80 1013.4
20260506103445 11 66 9.7 16.1 0.00 0.00 0.00 80 1013.4
20260506102440 10 23 17.7 24.1 0.00 0.00 0.00 80 1013.4
20260506101938 10 64 17.7 17.7 0.00 0.00 0.00 80 1013.4
20260506101435 10 19 11.3 16.1 0.00 0.00 0.00 79 1013.4
20260506100932 11 30 6.4 9.7 0.00 0.00 0.00 80 1013.4
20260506100430 10 23 6.4 11.3 0.00 0.00 0.00 81 1013.4
20260506095927 10 27 11.3 11.3 0.00 0.00 0.00 81 1013.4
20260506095425 10 1 17.7 17.7 0.00 0.00 0.00 80 1013.4
20260506094922 10 42 9.7 14.5 0.00 0.00 0.00 80 1013.4
20260506094420 10 345 14.5 17.7 0.00 0.00 0.00 80 1013.4
20260506093415 11 22 6.4 9.7 0.00 0.00 0.00 80 1013.0
20260506092913 11 66 9.7 17.7 0.00 0.00 0.00 79 1013.0
20260506092410 11 17 8.0 11.3 0.00 0.00 0.00 79 1013.0
20260506091908 10 18 19.3 22.5 0.00 0.00 0.00 78 1013.0
20260506091405 11 31 19.3 25.7 0.00 0.00 0.00 78 1013.0
20260506090904 11 5 4.8 9.7 0.00 0.00 0.00 78 1013.0
20260506090401 11 304 3.2 16.1 0.00 0.00 0.00 78 1013.0